Home   Weather   Annapolis   Past weeks

Flag for USA Past Weather in Annapolis, Maryland, USA — Yesterday and Last 2 Weeks

Now
46 °F

Overcast.


Feels Like: 41 °F
Forecast: 38 / 49 °F
Wind: 12 mph from West

Location: Annapolis - United States Naval Academy

Current Time: Dec 3, 2016 at 2:09:21 am

Latest Report: Dec 3, 2016 at 12:54 am


Visibility: 10 mi

Pressure: 30.11 "Hg

Humidity: 48%

Dew Point: 27 °F

Location of AnnapolisLocation

Past Weather in Annapolis — Graph

°F

Annapolis Temperature Yesterday

Maximum temperature yesterday: 52 °F (at 12:54 pm)
Minimum temperature yesterday: 45 °F (at 6:54 am)
Average temperature yesterday: 48 °F

High & Low Weather Summary for the Past Weeks

 TemperatureHumidityPressure
High68 °F (Nov 19, 1:54 pm)97% (Nov 30, 12:54 am)30.38 "Hg (Nov 30, 12:54 am)
Low32 °F (Nov 23, 6:54 am)28% (Nov 21, 1:54 pm)29.54 "Hg (Dec 1, 12:54 am)
Average49 °F64%30.05 "Hg
* Reported Nov 18 12:54 am — Dec 3 12:54 am, Annapolis, Weather by CustomWeather, © 2016

Note: Actual official high and low records may vary slightly from our data, if they occured in-between our weather recording intervals... More about our weather records

Advertising

Annapolis Weather History for the Previous 24 Hours

Scroll right to see more
 ConditionsComfort  
Time TempWeatherWind HumidityBarometerVisibility
12:54 am
Sat, Dec 3
46 °FOvercast.12 mph48%30.11 "Hg10 mi
11:54 pm
Fri, Dec 2
46 °FOvercast.9 mph48%30.10 "Hg10 mi
10:54 pm46 °FOvercast.9 mph48%30.11 "Hg10 mi
9:54 pm46 °FOvercast.7 mph48%30.09 "Hg10 mi
8:54 pm46 °FOvercast.6 mph48%30.10 "Hg10 mi
7:54 pm46 °FOvercast.12 mph50%30.10 "Hg10 mi
6:54 pm47 °FPassing clouds.9 mph52%30.10 "Hg10 mi
5:54 pm47 °FClear.10 mph54%30.07 "Hg10 mi
4:54 pm49 °FClear.12 mph50%30.05 "Hg10 mi
3:54 pm50 °FSunny.13 mph46%30.03 "Hg10 mi
2:54 pm52 °FSunny.14 mph43%30.01 "Hg10 mi
1:54 pm52 °FSunny.14 mph41%30.01 "Hg10 mi
12:54 pm52 °FSunny.15 mph40%30.01 "Hg10 mi
11:54 am51 °FSunny.10 mph39%30.03 "Hg10 mi
10:54 am50 °FSunny.16 mph43%30.06 "Hg10 mi
9:54 am49 °FSunny.12 mph44%30.06 "Hg10 mi
8:54 am48 °FSunny.12 mph46%30.05 "Hg10 mi
7:54 am46 °FSunny.10 mph48%30.04 "Hg10 mi
6:54 am45 °FClear.8 mph48%30.02 "Hg10 mi
5:54 am46 °FClear.5 mph46%30.01 "Hg10 mi
4:54 am46 °FClear.12 mph46%30.00 "Hg10 mi
3:54 am46 °FClear.9 mph50%29.99 "Hg10 mi
2:54 am47 °FClear.9 mph50%29.99 "Hg10 mi
Weather by CustomWeather, © 2016

See weather overviewHow to use our weather pages